User: anonymous   Login
Location: Caltech
(34.1382°N, 118.1253°W)
Time: 15:28:05
(UTC-08:00)
Language:

GPS 2-04 Rocket1 - Orbit

View from above orbital plane
View from above orbital plane
View from above satellite
View from above satellite

Ground track
Ground track

The orbit data is extracted from the following two-line orbital elements,

1 20303U 89085B   17017.79299779  .00001301  00000-0  48399-4 0  9995
2 20303  35.6301 258.2236 0109864 282.9620  75.8857 15.22632402477604
Epoch (UTC): 17 January 2017 19:01:55
Eccentricity: 0.0109864
inclination: 35.6301°
perigee height: 422 km
apogee height: 573 km
right ascension of ascending node: 258.2236°
argument of perigee: 282.9620°
revolutions per day: 15.22632402
mean anomaly at epoch: 75.8857°
orbit number at epoch: 47760

The dashed part of the orbit path shows where the satellite is in the earth's shadow,  

DLR